Flag for Germany Weather past 2 weeks in Neumarkt in der Oberpfalz, Bavaria, Germany

36 °F

Light rain. Mostly cloudy.

Feels Like: 30 °F
Forecast: 43 / 46 °F
Wind: 7 mph from Southwest

Location: Hohenfels

Current Time: Nov 29, 2015 at 11:54:34 AM

Latest Report: Nov 29, 2015 at 10:58 AM

Visibility: N/A

Pressure: 30.09 "Hg

Humidity: 100%

Dew point: 36 °F

Location of Neumarkt in der OberpfalzLocation

Historic Weather in Neumarkt in der Oberpfalz — Graph


Neumarkt in der Oberpfalz temperature yesterday

Maximum temperature yesterday: 36 °F (at 2:58 PM)
Minimum temperature yesterday: 28 °F (at 2:02 AM)
Average temperature yesterday: 33 °F

Past Weeks' High & Low Weather Summary

High61 °F (Nov 16, 1:58 PM)100% (Nov 15, 4:58 AM)30.38 "Hg (Nov 15, 4:58 AM)
Low25 °F (Nov 27, 6:59 AM)48% (Nov 16, 2:58 PM)29.42 "Hg (Nov 21, 4:02 PM)
Average40 °F86%29.97 "Hg
* Reported Nov 14 10:58 AM — Nov 29 10:58 AM, Neumarkt in der Oberpfalz, Weather by CustomWeather, © 2015

Note: Actual official high and low records may vary slightly from our data, if they occured in-between our weather recording intervals... More about our weather records


Neumarkt in der Oberpfalz weather history for previous 24 hours

Time TempWeatherWind HumidityBarometerVisibility
10:58 AM
Sun, Nov 29
36 °FLight rain. Mostly cloudy.7 mph100%30.09 "HgN/A
9:58 AM36 °FLight rain. More clouds than sun.6 mph93%30.10 "HgN/A
8:58 AM36 °FLight snow. Overcast.7 mph87%30.09 "HgN/A
6:58 AM34 °FLight snow. Fog.7 mph93%30.09 "Hg5 mi
5:58 AM34 °FPassing clouds.6 mph87%30.10 "HgN/A
4:58 AM32 °FPassing clouds.7 mph93%30.12 "HgN/A
3:58 AM32 °FPassing clouds.8 mph93%30.13 "HgN/A
2:58 AM32 °FPassing clouds.8 mph93%30.15 "HgN/A
1:58 AM32 °FPassing clouds.6 mph93%30.16 "HgN/A
12:58 AM32 °FClear.5 mph100%30.17 "HgN/A
11:58 PM
Sat, Nov 28
34 °FPassing clouds.6 mph93%30.18 "HgN/A
10:58 PM34 °FOvercast.5 mph93%30.18 "HgN/A
9:59 PM36 °FMostly cloudy.7 mph87%30.12 "HgN/A
8:58 PM36 °FMostly cloudy.6 mph87%30.18 "HgN/A
7:58 PM36 °FMostly cloudy.5 mph93%30.16 "HgN/A
6:58 PM36 °FPassing clouds.5 mph93%30.15 "HgN/A
6:02 PM36 °FLight rain. Overcast.6 mph93%30.06 "HgN/A
4:58 PM36 °FLow clouds.3 mph93%30.10 "HgN/A
3:58 PM36 °FLow clouds.13 mph93%30.07 "HgN/A
2:58 PM36 °FLight rain. Mostly cloudy.12 mph93%30.03 "HgN/A
1:58 PM34 °FLow clouds.10 mph93%29.99 "HgN/A
12:58 PM34 °FLight rain. Low clouds.9 mph93%29.95 "HgN/A
11:58 AM32 °FLight snow. Ice fog.6 mph100%29.96 "Hg1 mi
Weather by CustomWeather, © 2015

See weather overviewHow to use our weather pages